Regional Weather Roundup
Issued by NWS

Home | Current Version | Previous Version | Graphics & Text | Print | Product List | Glossary Off
Versions: 1 2 3 4 5 6 7 8 9 10 11 12 13 14 15 16 17 18 19 20 21 22 23 24 25 26 27 28 29 30 31 32 33 34 35 36 37 38 39 40 41 42 43 44 45 46 47 48 49 50

942
ASUS43 KDMX 231506
RWRIA

WEATHER ROUNDUP FOR IOWA
NATIONAL WEATHER SERVICE DES MOINES IA
900 AM CST THU FEB 23 2017

NOTE: "FAIR" INDICATES FEW OR NO CLOUDS BELOW 12,000 FEET WITH NO
SIGNIFICANT WEATHER AND/OR OBSTRUCTIONS TO VISIBILITY.

* - THESE STATIONS ARE NOT NWS STATIONS...THUS NOT UNDER NWS
QUALITY CONTROL.  THEY ALSO DO NOT REPORT WEATHER SUCH
AS PRECIPITATION OR FOG.

IAZ001>003-012>014-020>022-031>034-043>046-231600-
   NORTHWEST IOWA

CITY           SKY/WX    TMP DP  RH WIND       PRES   REMARKS
CARROLL *      CLOUDY    37  36  93 NE14      29.83F WCI  29
CHEROKEE *     CLOUDY    33  31  93 NE12      29.86F WCI  24
DENISON *      CLOUDY    36  34  93 NE15G24   29.80F WCI  26
LE MARS *      CLOUDY    34  30  86 NE15      29.87F WCI  24
ORANGE CITY *  CLOUDY    32  30  93 NE12      29.87F WCI  23
SHELDON *      CLOUDY    32  32 100 NE14G21   29.86F WCI  22
SIOUX CITY     CLOUDY    37  32  82 NE14      29.84F WCI  28
SPENCER        CLOUDY    32  29  88 NE18      29.88R WCI  20
STORM LAKE *   CLOUDY    34  30  86 NE18      29.85S WCI  23
$$

IAZ055>058-069>071-079>083-090>094-231600-
   SOUTHWEST IOWA

CITY           SKY/WX    TMP DP  RH WIND       PRES   REMARKS
ATLANTIC *     CLOUDY    37  36  93 NE14G22   29.79F WCI  29
CLARINDA *     CLOUDY    39  39 100 NE13G20   29.79F WCI  32
COUNCIL BLFS * CLOUDY    36  36 100 NE18G26   29.77F WCI  25
CRESTON *      CLOUDY    37  37 100 NE14G22   29.79S WCI  29
HARLAN  *      CLOUDY    36  36 100 NE14G22   29.82F WCI  27
LAMONI         CLOUDY    39  37  92 E12       29.78R WCI  32
RED OAK *      CLOUDY    37  36  93 NE17G23   29.78F WCI  28
SHENANDOAH *   CLOUDY    39  37  93 NE14G21   29.76F WCI  31
$$

IAZ047>049-059>061-072>074-084-231600-
   CENTRAL IOWA

CITY           SKY/WX    TMP DP  RH WIND       PRES   REMARKS
AMES           CLOUDY    39  36  89 NE9       29.83S WCI  33
ANKENY *       CLOUDY    39  36  87 NE8       29.84S WCI  34
BOONE *        CLOUDY    37  37 100 NE12      29.83S WCI  30
CHARITON *     CLOUDY    39  37  93 NE14G20   29.78F WCI  31
DES MOINES     CLOUDY    41  36  82 NE15      29.82F
GRINNELL*      CLOUDY    40  37  88 N7        29.83R WCI  35
KNOXVILLE *    CLOUDY    39  36  87 NE10      29.79F WCI  32
MARSHALLTOWN   CLOUDY    39  36  89 N9        29.81F WCI  33
NEWTON *       CLOUDY    41  36  81 NE10      29.81S
PELLA *        CLOUDY    41  38  88 NE6       29.82F
PERRY *        CLOUDY    38  35  91 N14       29.83S WCI  30
$$

IAZ004>006-015-016-023>025-035-036-231600-
   NORTH CENTRAL IOWA

CITY           SKY/WX    TMP DP  RH WIND       PRES   REMARKS
ALGONA *       CLOUDY    36  34  93 N13       29.86S WCI  27
CLARION *      CLOUDY    36  36 100 NE16      29.83F WCI  26
ESTHERVILLE    CLOUDY    31  29  92 N16       29.88R WCI  20
FORT DODGE *   CLOUDY    36  30  80 NE12      29.85R WCI  27
MASON CITY     CLOUDY    35  32  88 NE12      29.87R WCI  27
FOREST CITY *  CLOUDY    36  32  87 NE9       29.86S WCI  29
WEBSTER CITY * CLOUDY    37  34  87 NE12      29.81S WCI  30
IOWA FALLS *   CLOUDY    38  35  87 NE15      29.84S WCI  29
$$

IAZ007>011-017>019-026>030-037>042-050>054-066-231600-
   NORTHEAST IOWA

CITY           SKY/WX    TMP DP  RH WIND       PRES   REMARKS
CEDAR RAPIDS   PTSUNNY   42  38  85 N9        29.79R
CHARLES CITY * CLOUDY    37  37 100 N14       29.85R WCI  29
CLINTON *      CLOUDY    45  40  82 N10       29.81R
DECORAH *      CLOUDY    39  32  75 NE12      29.84R WCI  32
DUBUQUE        PTSUNNY   41  36  82 N14       29.80R
MONTICELLO *   CLOUDY    43  37  81 N10       29.80F
OELWEIN *      CLOUDY    39  37  93 NE10      29.82S WCI  32
WATERLOO       CLOUDY    40  34  79 N9        29.83R WCI  34
$$

IAZ064-065-067-068-078-231600-
   EAST CENTRAL IOWA

CITY           SKY/WX    TMP DP  RH WIND       PRES   REMARKS
DAVENPORT      PTSUNNY   43  39  86 N14       29.79R
IOWA CITY      CLOUDY    45  37  73 NE12      29.82R
MUSCATINE *    CLOUDY    45  39  81 N9        29.83R
QUAD CITIES    PTSUNNY  N/A N/A N/A N7        29.80R
$$

IAZ062-063-075>077-085>089-095>099-231600-
   SOUTHEAST IOWA

CITY           SKY/WX    TMP DP  RH WIND       PRES   REMARKS
BURLINGTON     CLOUDY    44  41  89 NE8       29.79F
FAIRFIELD *    CLOUDY    43  37  81 NE7       29.81S
KEOKUK *       CLOUDY    45  41  87 VRB7      29.80R
CENTERVILLE *  CLOUDY    39  39 100 NE8       29.82R WCI  34
OTTUMWA        CLOUDY    43  39  86 NE10      29.80S
WASHINGTON *   CLOUDY    43  39  87 N7        29.82S
$$

ABBREVIATIONS USED IN REMARKS
   TC - TEMPERATURES IN CELSIUS
  WCI - WIND CHILL INDEX
   HX - HEAT INDEX
  VSB - VISIBILITY
$$





USA.gov is the U.S. government's official web portal to all federal, state and local government web resources and services.